TimeEET,TemperatureF,Dew PointF,Humidity,Sea Level PressureIn,VisibilityMPH,Wind Direction,Wind SpeedMPH,Gust SpeedMPH,PrecipitationIn,Events,Conditions,WindDirDegrees,DateUTC
12:50 AM,48.2,35.6,62,29.80,6.2,West,5.8,-,N/A,,Mostly Cloudy,280,2013-01-05 22:50:00
1:50 AM,48.2,35.6,62,29.77,6.2,WNW,6.9,-,N/A,,Mostly Cloudy,300,2013-01-05 23:50:00
2:50 AM,48.2,33.8,58,29.80,6.2,NW,6.9,-,N/A,,Mostly Cloudy,310,2013-01-06 00:50:00
3:50 AM,48.2,35.6,62,29.80,6.2,NW,5.8,-,N/A,,Mostly Cloudy,310,2013-01-06 01:50:00
4:50 AM,46.4,35.6,66,29.80,6.2,WSW,13.8,-,N/A,,Mostly Cloudy,250,2013-01-06 02:50:00
5:50 AM,46.4,33.8,62,29.83,6.2,West,11.5,-,N/A,,Mostly Cloudy,270,2013-01-06 03:50:00
6:20 AM,46.4,33.8,62,29.83,6.2,WNW,9.2,-,N/A,,Mostly Cloudy,300,2013-01-06 04:20:00
6:50 AM,46.4,30.2,53,29.83,6.2,WNW,8.1,-,N/A,,Scattered Clouds,290,2013-01-06 04:50:00
7:20 AM,46.4,30.2,53,29.83,6.2,WNW,6.9,-,N/A,,Scattered Clouds,300,2013-01-06 05:20:00
7:50 AM,46.4,24.8,43,29.86,6.2,NW,6.9,-,N/A,,Partly Cloudy,320,2013-01-06 05:50:00
8:20 AM,46.4,24.8,43,29.86,6.2,North,15.0,26.5,N/A,,Partly Cloudy,350,2013-01-06 06:20:00
8:50 AM,46.4,23.0,40,29.89,6.2,North,17.3,28.8,N/A,,Partly Cloudy,10,2013-01-06 06:50:00
9:20 AM,46.4,23.0,40,29.89,6.2,North,17.3,28.8,N/A,,Partly Cloudy,10,2013-01-06 07:20:00
9:50 AM,48.2,21.2,34,29.92,6.2,North,17.3,28.8,N/A,,Partly Cloudy,10,2013-01-06 07:50:00
10:20 AM,48.2,21.2,34,29.92,6.2,North,17.3,28.8,N/A,,Partly Cloudy,10,2013-01-06 08:20:00
10:50 AM,50.0,23.0,35,29.92,6.2,North,17.3,28.8,N/A,,Scattered Clouds,350,2013-01-06 08:50:00
11:20 AM,50.0,23.0,35,29.92,6.2,North,17.3,28.8,N/A,,Scattered Clouds,350,2013-01-06 09:20:00
12:20 PM,50.0,23.0,35,29.95,6.2,North,11.5,23.0,N/A,,Scattered Clouds,10,2013-01-06 10:20:00
1:20 PM,50.0,23.0,35,29.92,6.2,NNE,11.5,23.0,N/A,,Scattered Clouds,20,2013-01-06 11:20:00
1:50 PM,50.0,24.8,37,29.92,6.2,North,11.5,23.0,N/A,,Scattered Clouds,10,2013-01-06 11:50:00
2:20 PM,50.0,24.8,37,29.92,6.2,North,17.3,-,N/A,,Scattered Clouds,10,2013-01-06 12:20:00
2:50 PM,50.0,24.8,37,29.92,6.2,North,17.3,-,N/A,,Scattered Clouds,10,2013-01-06 12:50:00
3:50 PM,48.2,26.6,43,29.92,6.2,North,16.1,-,N/A,,Scattered Clouds,10,2013-01-06 13:50:00
4:20 PM,48.2,24.8,40,29.92,6.2,North,16.1,-,N/A,,Scattered Clouds,10,2013-01-06 14:20:00
4:50 PM,48.2,24.8,40,29.92,6.2,North,13.8,-,N/A,,Scattered Clouds,10,2013-01-06 14:50:00
5:20 PM,46.4,24.8,43,29.92,6.2,North,12.7,-,N/A,,Scattered Clouds,10,2013-01-06 15:20:00
5:50 PM,44.6,24.8,46,29.92,6.2,North,8.1,-,N/A,,Scattered Clouds,10,2013-01-06 15:50:00
6:20 PM,42.8,26.6,53,29.95,6.2,NNW,8.1,-,N/A,,Scattered Clouds,340,2013-01-06 16:20:00
6:50 PM,41.0,26.6,57,29.95,6.2,NW,6.9,-,N/A,,Scattered Clouds,310,2013-01-06 16:50:00
7:20 PM,37.4,28.4,70,29.98,6.2,West,6.9,-,N/A,,Scattered Clouds,260,2013-01-06 17:20:00
7:50 PM,37.4,28.4,70,29.98,6.2,West,8.1,-,N/A,,Partly Cloudy,280,2013-01-06 17:50:00
10:50 PM,35.6,24.8,65,29.98,6.2,West,4.6,-,N/A,,Partly Cloudy,270,2013-01-06 20:50:00
11:50 PM,33.8,24.8,70,29.98,6.2,Calm,Calm,-,N/A,,Partly Cloudy,0,2013-01-06 21:50:00